[[{"header":{"parameterUnit":"m.s-1","parameterCategory":1,"la1":30.2991,"la2":30.254,"lo1":-89.0895,"lo2":-89.0444,"dy":0.0017,"dx":0.0017,"nx":28,"ny":28,"refTime":"2023-09-23T09:00:00:Z","depth":0,"parameterNumber":2,"parameterNumberName":"U-component_of_WINDS"},"data":[0,0,0,0,0,0,0,0,0,0,0,0,0,0,0,0,0,0,0,0,0,0,0,0,0,0,0,0,0,0,0,0,0,0,0,0,0,0,0,0,0,0,0,0,0,0,0,0,0,0,0,0,0,0,0,0,0,0,-1.9769,-1.977,0,-1.9848,-1.9849,-1.985,-1.9841,-1.984,-1.9838,-1.9837,-1.9919,-1.9923,-1.9926,0,0,0,0,0,0,0,0,0,0,0,0,0,-1.9612,-1.9615,-1.9769,-1.977,-1.9771,-1.9848,-1.9849,-1.985,-1.9841,-1.984,-1.9838,-1.9837,-1.9918,-1.9922,-1.9926,0,0,0,0,0,0,0,0,0,0,0,0,0,-1.9685,-1.9616,-1.9769,-1.9776,-1.9777,-1.9848,-1.9849,-1.985,-1.9842,-1.984,-1.9838,-1.9836,-1.9917,-1.9922,-1.9927,-1.9996,0,0,-1.9942,-1.9944,0,0,0,0,0,0,0,0,-1.9681,-1.969,-1.9774,-1.9776,-1.9777,-1.9833,-1.9824,-1.9899,-1.9842,-1.9817,-1.9837,-1.9835,-1.9892,-1.9899,-1.9918,-1.9999,-2.0003,-1.9943,-1.9946,-1.9948,-1.9949,0,0,0,0,0,0,0,-1.9676,-1.9687,-1.98,-1.9775,-1.9777,-1.9775,-1.9784,-1.9838,-1.9864,-1.9819,-1.9819,-1.9828,-1.9893,-1.9913,-1.992,-2.0004,-1.9943,-1.9947,-1.995,-1.9952,-2.0146,-2.0148,0,0,0,0,0,0,-1.9669,-1.9683,-1.9798,-1.9803,-1.9723,-1.978,-1.9789,-1.9817,-1.9864,-1.9869,-1.983,-1.9827,-1.9906,-1.9914,-1.9923,-2.0007,-1.9948,-1.9953,-1.9955,-2.0144,-2.0146,-2.0149,0,0,0,0,0,0,-1.9665,-1.9679,-1.9795,-1.9743,-1.9757,-1.9785,-1.9816,-1.9819,-1.984,-1.9872,-1.9876,-1.9846,-1.9904,-1.9916,-1.9977,-2.0009,-1.9955,-1.9959,-2.0141,-2.0145,-2.0148,-2.0175,0,0,0,0,0,0,-1.9661,-1.9678,-1.9704,-1.9743,-1.976,-1.9848,-1.9818,-1.9822,-1.9848,-1.9846,-1.9888,-1.9893,-1.9904,-1.997,-1.9982,-2.0015,-1.9963,-2.0139,-2.0143,-2.0147,-2.0171,-2.0178,-2.0185,0,0,0,0,0,-1.9655,-1.9709,-1.9705,-1.9719,-1.9793,-1.985,-1.9859,-1.987,-1.9851,-1.9878,-1.9898,-1.9892,-2.0004,-1.9976,-1.999,-2.0025,-2.0137,-2.0142,-2.0146,-2.0168,-2.0177,-2.0185,0,0,0,0,0,0,-1.9673,-1.9714,-1.9711,-1.9779,-1.9811,-1.9848,-1.9882,-1.9879,-1.9918,-1.9914,-1.9927,-1.9936,-1.9999,-2.0018,-1.9987,-2.0094,-2.0068,-2.0075,-2.0079,-2.0088,-2.0095,-2.0089,-1.9968,0,0,0,0,0,-1.9685,-1.9727,-1.976,-1.9817,-1.9833,-1.9855,-1.988,-1.9885,-1.9919,-1.9933,-1.9958,-1.9991,-2.0034,-2.0062,-2.0103,-2.0174,-2.0183,-2.0204,-2.0211,-2.0217,-2.0223,-2.0262,-2.0273,-2.0165,-2.0165,-2.0164,0,0,-1.971,-1.9737,-1.9763,-1.9821,-1.9847,-1.989,-1.9866,-1.9914,-1.9946,-1.994,-2.0,-2.002,-2.0058,-2.0124,-2.0155,-2.0142,-2.0255,-2.0223,-2.0227,-2.0231,-2.0268,-2.0279,-2.0288,-2.0168,-2.0167,-2.0167,0,0,-1.9778,-1.9803,-1.9853,-1.9878,-1.9917,-1.9931,-1.9943,-1.9981,-1.9993,-2.0053,-2.005,-2.0089,-2.0162,-2.0189,-2.0213,-2.0291,-2.0286,-2.0304,-2.0339,-2.0377,-2.0386,-2.0393,-2.0421,-2.0431,-2.031,-2.031,-2.031,0,-1.9804,-1.9869,-1.9879,-1.9926,-1.9952,-1.9948,-1.9999,-2.0024,-2.0074,-2.0092,-2.0077,-2.0169,-2.0194,-2.0267,-2.0286,-2.0305,-2.0319,-2.0299,-2.0384,-2.0391,-2.0399,-2.0426,-2.0436,-2.0312,-2.0312,-2.0312,-2.0311,0,-1.99,-1.9945,-1.9981,-2.0029,-2.0059,-2.0108,-2.0125,-2.0154,-2.0157,-2.0172,-2.0233,-2.0264,-2.0311,-2.0328,-2.0332,-2.0402,-2.0393,-2.0381,-2.0354,-2.0411,-2.0436,-2.0447,-2.0315,-2.0314,-2.0314,-2.0313,0,0,-1.9983,-2.0035,-2.0048,-2.0069,-2.0111,-2.0147,-2.0195,-2.0241,-2.0266,-2.03,-2.0342,-2.0404,-2.0392,-2.0419,-2.0425,-2.0458,-2.0518,-2.0442,-2.0443,-2.0456,-2.0598,-2.0607,-2.0619,-2.0515,-2.0517,-2.0519,-2.0595,0,-2.0055,-2.0141,-2.0151,-2.0228,-2.027,-2.0266,-2.0308,-2.0339,-2.0354,-2.0393,-2.041,-2.0454,-2.0435,-2.0452,-2.0484,-2.0504,-2.0547,-2.0499,-2.0555,-2.0557,-2.0546,-2.0632,-2.0643,-2.0713,-2.0605,-2.0607,-2.0608,0,-2.0152,-2.0189,-2.0269,-2.0305,-2.0323,-2.0361,-2.0403,-2.044,-2.0474,-2.0483,-2.0513,-2.0515,-2.0565,-2.0536,-2.0606,-2.0573,-2.0596,-2.061,-2.0613,-2.0619,-2.0586,-2.0642,-2.0736,-2.0747,-2.0624,-2.0622,-2.0621,0,-2.0205,-2.0274,-2.0332,-2.035,-2.0393,-2.042,-2.0439,-2.0472,-2.0498,-2.0535,-2.0553,-2.0596,-2.0619,-2.0652,-2.0666,-2.0643,-2.0735,-2.0707,-2.0745,-2.0745,-2.0765,-2.0764,-2.0865,-2.0779,-2.0779,-2.0779,-2.0778,0,-2.0285,-2.0335,-2.0356,-2.0391,-2.0447,-2.0457,-2.0512,-2.053,-2.0559,-2.0598,-2.0597,-2.0634,-2.0649,-2.0689,-2.0699,-2.0756,-2.0767,-2.0776,-2.0778,-2.0776,-2.0775,-2.0793,-2.0788,-2.0781,-2.0781,-2.078,-2.078,0,-2.0355,-2.037,-2.0433,-2.0468,-2.0478,-2.0517,-2.0548,-2.0582,-2.0597,-2.0646,-2.0658,-2.0682,-2.0728,-2.0744,-2.0801,-2.0808,-2.0874,-2.0872,-2.0862,-2.0863,-2.09,-2.0896,-2.1016,-2.1032,-2.0935,-2.0936,-2.0937,0,-2.0405,-2.0444,-2.0482,-2.0508,-2.0528,-2.057,-2.0597,-2.0608,-2.0636,-2.0678,-2.0708,-2.0753,-2.079,-2.0864,-2.0887,-2.093,-2.0929,-2.0968,-2.0936,-2.0933,-2.0931,-2.0929,-2.0933,-2.0975,-2.0976,-2.0976,-2.0977,0,-2.0494,-2.05,-2.0539,-2.058,-2.0612,-2.0645,-2.0677,-2.0698,-2.0715,-2.0746,-2.0793,-2.0822,-2.0879,-2.0924,-2.0968,-2.0988,-2.0986,-2.0987,-2.0998,-2.0997,-2.099,-2.0995,-2.0879,-2.0984,-2.0984,-2.0983,-2.0983,-2.0982,-2.0557,-2.059,-2.0623,-2.0666,-2.0691,-2.0721,-2.0755,-2.0773,-2.0812,-2.0859,-2.0863,-2.0914,-2.0947,-2.1005,-2.1028,-2.1068,-2.1057,-2.1073,-2.1077,-2.1081,-2.1084,-2.0983,-2.1075,-2.1075,-2.1075,-2.1075,-2.1075,0,-2.0646,-2.0666,-2.0706,-2.075,-2.0784,-2.0777,-2.0812,-2.0841,-2.0886,-2.0916,-2.0953,-2.1006,-2.105,-2.1076,-2.112,-2.1147,-2.1147,-2.1158,-2.1157,-2.1162,-2.1091,-2.1077,-2.1158,-2.1158,-2.1158,-2.1157,-2.1157,-2.1157,-2.0697,-2.0753,-2.0763,-2.0832,-2.0852,-2.0901,-2.0921,-2.0949,-2.0974,-2.1033,-2.107,-2.1085,-2.1114,-2.116,-2.12,-2.1207,-2.1223,-2.1236,-2.1241,-2.1175,-2.1167,-2.1159,-2.1146,-2.1239,-2.1239,-2.1309,-2.131,-2.131]},{"header":{"parameterUnit":"m.s-1","parameterCategory":1,"la1":30.2991,"la2":30.254,"lo1":-89.0895,"lo2":-89.0444,"dy":0.0017,"dx":0.0017,"nx":28,"ny":28,"refTime":"2023-09-23T09:00:00:Z","depth":0,"parameterNumber":3,"parameterNumberName":"V-component_of_WINDS"},"data":[0,0,0,0,0,0,0,0,0,0,0,0,0,0,0,0,0,0,0,0,0,0,0,0,0,0,0,0,0,0,0,0,0,0,0,0,0,0,0,0,0,0,0,0,0,0,0,0,0,0,0,0,0,0,0,0,0,0,1.3102,1.3101,0,1.3071,1.3071,1.307,1.3008,1.3007,1.3006,1.3005,1.2974,1.2974,1.2975,0,0,0,0,0,0,0,0,0,0,0,0,0,1.3106,1.3107,1.3102,1.3101,1.3101,1.3071,1.3071,1.307,1.3008,1.3007,1.3005,1.3004,1.2974,1.2974,1.2975,0,0,0,0,0,0,0,0,0,0,0,0,0,1.3093,1.3107,1.3102,1.3066,1.3063,1.3071,1.3071,1.307,1.3009,1.3007,1.3005,1.3003,1.2974,1.2974,1.2975,1.3015,0,0,1.2976,1.2977,0,0,0,0,0,0,0,0,1.3094,1.3093,1.3072,1.3069,1.3065,1.3042,1.3061,1.3052,1.3009,1.3029,1.3005,1.3002,1.2998,1.2996,1.2995,1.3014,1.3012,1.2976,1.2977,1.2977,1.2977,0,0,0,0,0,0,0,1.3095,1.3094,1.3089,1.3072,1.3067,1.3052,1.3048,1.3059,1.3025,1.3027,1.3023,1.302,1.2996,1.2995,1.2994,1.3012,1.2976,1.2977,1.2977,1.2977,1.3061,1.3063,0,0,0,0,0,0,1.3101,1.3095,1.309,1.3089,1.3075,1.3054,1.3049,1.3051,1.3024,1.3018,1.3022,1.3017,1.2995,1.2993,1.2992,1.3037,1.2977,1.2977,1.2978,1.3059,1.3062,1.3064,0,0,0,0,0,0,1.3101,1.3101,1.3092,1.3091,1.3088,1.3055,1.3058,1.3051,1.305,1.302,1.3013,1.3027,1.2993,1.2992,1.301,1.3035,1.2978,1.2978,1.3057,1.306,1.3063,1.3127,0,0,0,0,0,0,1.3102,1.3102,1.3117,1.3091,1.3088,1.311,1.306,1.3052,1.3051,1.3045,1.3023,1.3017,1.2991,1.3009,1.301,1.3034,1.2979,1.3055,1.3058,1.3062,1.3122,1.3131,1.3139,0,0,0,0,0,1.3102,1.3136,1.3118,1.3117,1.3107,1.3111,1.311,1.3079,1.3053,1.3068,1.3048,1.3018,1.3032,1.3012,1.3012,1.3037,1.3053,1.3057,1.3061,1.3118,1.3129,1.3139,0,0,0,0,0,0,1.3166,1.3132,1.3111,1.3138,1.3128,1.3101,1.3118,1.3092,1.3089,1.3083,1.3046,1.3041,1.3064,1.3052,1.303,1.3074,1.3038,1.3042,1.3081,1.3091,1.3099,1.3101,1.2979,0,0,0,0,0,1.3183,1.3189,1.316,1.3187,1.3182,1.3152,1.3152,1.313,1.3117,1.3113,1.3095,1.3084,1.3086,1.3088,1.3088,1.312,1.3114,1.3138,1.3146,1.3154,1.3158,1.3173,1.3182,1.3078,1.3078,1.3078,0,0,1.3218,1.3201,1.3207,1.3199,1.3188,1.3195,1.3148,1.3158,1.3163,1.3114,1.313,1.3116,1.3102,1.3127,1.3137,1.3118,1.3185,1.3159,1.3165,1.3165,1.3178,1.3188,1.3197,1.3081,1.308,1.308,0,0,1.3286,1.3274,1.3295,1.3285,1.3269,1.3248,1.3253,1.323,1.3219,1.3234,1.3197,1.3202,1.3207,1.3197,1.3194,1.3258,1.3229,1.3259,1.3304,1.3319,1.3327,1.3334,1.3356,1.3364,1.3264,1.3264,1.3264,0,1.3332,1.3342,1.3309,1.3321,1.3318,1.3273,1.3293,1.3286,1.3271,1.327,1.3249,1.3253,1.324,1.3262,1.3277,1.3276,1.328,1.3261,1.3328,1.3335,1.3341,1.3362,1.337,1.3267,1.3267,1.3267,1.3266,0,1.3399,1.3406,1.3424,1.3411,1.341,1.3426,1.3395,1.3398,1.3376,1.3357,1.3372,1.3356,1.3351,1.3355,1.3333,1.3373,1.3361,1.3335,1.3297,1.3355,1.3374,1.3381,1.3273,1.3271,1.327,1.3269,0,0,1.3506,1.3473,1.348,1.3473,1.3452,1.3457,1.3471,1.3466,1.3469,1.3461,1.3471,1.3476,1.3451,1.3446,1.3423,1.3437,1.3487,1.3408,1.3407,1.3422,1.3529,1.3548,1.3558,1.3469,1.347,1.3471,1.353,0,1.3568,1.359,1.356,1.3588,1.3594,1.3552,1.3564,1.3553,1.3536,1.3538,1.3519,1.3522,1.349,1.3487,1.3498,1.3479,1.3508,1.3474,1.3477,1.3477,1.3481,1.3567,1.3588,1.3644,1.3537,1.3538,1.3539,0,1.3644,1.3638,1.3667,1.3644,1.3645,1.3656,1.3649,1.3652,1.3638,1.3625,1.362,1.3592,1.3603,1.3568,1.3583,1.3561,1.356,1.3551,1.3552,1.355,1.3511,1.3567,1.3661,1.367,1.355,1.3549,1.3548,0,1.3717,1.3717,1.3734,1.3729,1.3703,1.3712,1.3701,1.3685,1.3684,1.3678,1.3677,1.3672,1.367,1.3667,1.3638,1.3615,1.3657,1.3619,1.3645,1.3646,1.3655,1.3654,1.3749,1.3657,1.3657,1.3656,1.3656,0,1.3789,1.3808,1.3766,1.3777,1.3796,1.3762,1.3783,1.3768,1.3754,1.376,1.3725,1.3731,1.3694,1.3697,1.3675,1.369,1.3689,1.3678,1.3672,1.3681,1.3682,1.3679,1.3674,1.3659,1.3658,1.3658,1.3657,0,1.3874,1.3847,1.3863,1.3836,1.383,1.3846,1.3823,1.3831,1.3812,1.382,1.382,1.379,1.3791,1.3763,1.3759,1.3744,1.3768,1.3756,1.3773,1.3768,1.3796,1.3793,1.3891,1.3902,1.3804,1.3805,1.3806,0,1.3922,1.3935,1.391,1.3912,1.3903,1.3906,1.3904,1.3871,1.3871,1.3856,1.3866,1.3864,1.386,1.3864,1.3842,1.3838,1.3824,1.3859,1.3823,1.3832,1.3823,1.3822,1.3823,1.3866,1.3867,1.3868,1.3869,0,1.4008,1.3994,1.3993,1.3987,1.3986,1.398,1.3972,1.3975,1.3939,1.394,1.3941,1.3938,1.3934,1.3932,1.3924,1.3913,1.3885,1.3881,1.3886,1.3895,1.3904,1.3898,1.3792,1.3878,1.3877,1.3877,1.3876,1.3876,1.4075,1.4084,1.4068,1.4068,1.4058,1.4051,1.4057,1.4038,1.4038,1.4031,1.4012,1.4016,1.4001,1.3987,1.3978,1.398,1.3963,1.3972,1.3973,1.3976,1.398,1.3905,1.3979,1.3979,1.3978,1.3978,1.3978,0,1.4158,1.4145,1.4146,1.4135,1.4135,1.4109,1.4098,1.4099,1.4103,1.4091,1.4089,1.4089,1.4087,1.4064,1.406,1.4066,1.4053,1.4065,1.4064,1.4062,1.3997,1.3992,1.4076,1.4076,1.4076,1.4076,1.4076,1.4076,1.4201,1.4216,1.42,1.4209,1.4196,1.4199,1.4195,1.4188,1.4178,1.418,1.4178,1.4163,1.4147,1.4141,1.4138,1.4131,1.4131,1.4147,1.4136,1.4076,1.4066,1.4057,1.4052,1.4148,1.4148,1.4201,1.4201,1.4202]}]]